Torna al catalogo

STARLINK-32524

AttivoComunicazioniVLEO
NORAD 62159·PAYLOAD·🇺🇸 United States

Lanciato Nov 30, 2024 da Cape Canaveral Space Force Station

Loading…

Prossimi Passaggi (prossime 24 ore)

TLE

AggiornatoSource: CelesTrak SupGP

Epoca: Sep 15, 2026, 02:41 UTC

1 62159C 24224W   26258.11229167 -.00003228  00000+0 -11691-3 0  2584
2 62159  43.0017 171.8170 0001270 272.9450 303.8180 15.27576668    11

Traccia STARLINK-32524 in tempo reale con AllMySat

Download on the App Store